Tracking 18793 objects as of 24-September-2017
HD Live streaming from Space Station
objects crossing your sky now

NAVSTAR 19 (USA 54)

Track NAVSTAR 19 (USA 54) now!
NAVSTAR 19 (USA 54) is classified as:


NORAD ID: 20533
Int'l Code: 1990-025A
Perigee: 20,956.4 km
Apogee: 21,173.5 km
Inclination: 55.6 °
Period: 753.8 minutes
Semi major axis: 27435 km
RCS: 0.6015 m2 (medium)
Launch date: March 26, 1990
Source: United States (US)
Launch site: AIR FORCE EASTERN TEST RANGE (AFETR)
PRN:
aabbcc
Your satellite tracking list
Your tracking list is empty





NASA's NSSDC Master Catalog

Two Line Element Set (TLE):
1 20533U 90025A   17267.06076561 -.00000099  00000-0  00000+0 0  9991
2 20533  55.5779   2.2692 0039577 160.4148 236.2312  1.91039337194187
Source of the keplerian elements: AFSPC